| time (UTC) | temp C | wind direction | speed KPH | gust KPH | rain 1hr cm | rain 24hr cm | rain mn cm | humidity % | barometer mb |
| 20260509001543 | 8 | 0.0 | 0.0 | 0.00 | 0.00 | 0.00 | 61 | 1010.7 | |
| 20260509000042 | 9 | 0.0 | 0.0 | 0.00 | 0.00 | 0.00 | 59 | 1010.6 | |
| 20260508234542 | 10 | 0.0 | 0.0 | 0.00 | 0.00 | 0.00 | 55 | 1010.4 | |
| 20260508233042 | 10 | 0.0 | 0.0 | 0.00 | 0.00 | 0.00 | 53 | 1010.2 | |
| 20260508231540 | 11 | 0.0 | 0.0 | 0.00 | 0.00 | 0.00 | 55 | 1010.0 | |
| 20260508230040 | 11 | 0.0 | 0.0 | 0.00 | 0.00 | 0.00 | 51 | 1010.1 | |
| 20260508224549 | 11 | 0.0 | 0.0 | 0.00 | 0.00 | 0.00 | 48 | 1010.1 | |
| 20260508223047 | 12 | 0.0 | 0.0 | 0.00 | 0.00 | 0.00 | 48 | 1010.1 | |
| 20260508221537 | 12 | 0.0 | 0.0 | 0.00 | 0.00 | 0.00 | 47 | 1010.1 | |
| 20260508220044 | 12 | 0.0 | 0.0 | 0.00 | 0.00 | 0.00 | 48 | 1010.0 | |
| 20260508214632 | 11 | 0.0 | 0.0 | 0.00 | 0.00 | 0.00 | 49 | 1010.1 | |
| 20260508213032 | 11 | 0.0 | 0.0 | 0.00 | 0.00 | 0.00 | 50 | 1010.3 | |
| 20260508211533 | 11 | 0.0 | 0.0 | 0.00 | 0.00 | 0.00 | 47 | 1010.3 | |
| 20260508210032 | 11 | 0.0 | 0.0 | 0.00 | 0.00 | 0.00 | 46 | 1010.3 | |
| 20260508204533 | 11 | 0.0 | 0.0 | 0.00 | 0.00 | 0.00 | 49 | 1010.3 | |
| 20260508203030 | 11 | 0.0 | 0.0 | 0.00 | 0.00 | 0.00 | 48 | 1010.4 | |
| 20260508201531 | 11 | 0.0 | 0.0 | 0.00 | 0.00 | 0.00 | 50 | 1010.6 | |
| 20260508200032 | 11 | 0.0 | 0.0 | 0.00 | 0.00 | 0.00 | 48 | 1010.7 | |
| 20260508194534 | 11 | 0.0 | 0.0 | 0.00 | 0.00 | 0.00 | 51 | 1011.0 | |
| 20260508193023 | 11 | 0.0 | 0.0 | 0.00 | 0.00 | 0.00 | 52 | 1011.0 | |
| 20260508191532 | 10 | 0.0 | 0.0 | 0.00 | 0.00 | 0.00 | 53 | 1011.3 | |
| 20260508190022 | 10 | 0.0 | 0.0 | 0.00 | 0.00 | 0.00 | 56 | 1011.4 | |
| 20260508184521 | 10 | 0.0 | 0.0 | 0.00 | 0.00 | 0.00 | 58 | 1011.5 | |
| 20260508183025 | 9 | 0.0 | 0.0 | 0.00 | 0.00 | 0.00 | 58 | 1011.8 | |
| 20260508181515 | 8 | 0.0 | 0.0 | 0.00 | 0.00 | 0.00 | 60 | 1011.9 | |
| 20260508180009 | 8 | 0.0 | 0.0 | 0.00 | 0.00 | 0.00 | 67 | 1011.9 | |
| 20260508174508 | 8 | 0.0 | 0.0 | 0.00 | 0.00 | 0.00 | 69 | 1011.9 | |
| 20260508173006 | 8 | 0.0 | 0.0 | 0.00 | 0.00 | 0.00 | 68 | 1011.9 | |
| 20260508171508 | 7 | 0.0 | 0.0 | 0.00 | 0.00 | 0.00 | 71 | 1011.9 | |
| 20260508170100 | 7 | 0.0 | 0.0 | 0.00 | 0.00 | 0.00 | 77 | 1012.0 | |
| 20260508164558 | 6 | 0.0 | 0.0 | 0.00 | 0.00 | 0.00 | 77 | 1012.1 | |
| 20260508163056 | 6 | 0.0 | 0.0 | 0.00 | 0.00 | 0.00 | 77 | 1012.2 | |
| 20260508161559 | 6 | 0.0 | 0.0 | 0.00 | 0.00 | 0.00 | 73 | 1012.1 | |
| 20260508160054 | 6 | 0.0 | 0.0 | 0.00 | 0.00 | 0.00 | 73 | 1011.8 | |
| 20260508154608 | 6 | 0.0 | 0.0 | 0.00 | 0.00 | 0.00 | 76 | 1011.8 | |
| 20260508153048 | 5 | 0.0 | 0.0 | 0.00 | 0.00 | 0.00 | 78 | 1011.5 | |
| 20260508151550 | 5 | 0.0 | 0.0 | 0.00 | 0.00 | 0.00 | 79 | 1011.6 | |
| 20260508150057 | 5 | 0.0 | 0.0 | 0.00 | 0.00 | 0.00 | 83 | 1011.9 | |
| 20260508144546 | 4 | 0.0 | 0.0 | 0.00 | 0.00 | 0.00 | 86 | 1011.9 | |
| 20260508143147 | 4 | 0.0 | 0.0 | 0.00 | 0.00 | 0.00 | 84 | 1011.9 | |
| 20260508141544 | 5 | 0.0 | 0.0 | 0.00 | 0.00 | 0.00 | 82 | 1012.0 | |
| 20260508140050 | 5 | 0.0 | 0.0 | 0.00 | 0.00 | 0.00 | 83 | 1011.8 | |
| 20260508134542 | 5 | 0.0 | 0.0 | 0.00 | 0.00 | 0.00 | 80 | 1011.9 | |
| 20260508133041 | 5 | 0.0 | 0.0 | 0.00 | 0.00 | 0.00 | 80 | 1011.2 | |
| 20260508131540 | 5 | 0.0 | 0.0 | 0.00 | 0.00 | 0.00 | 80 | 1011.0 | |
| 20260508130040 | 5 | 0.0 | 0.0 | 0.00 | 0.00 | 0.00 | 78 | 1011.3 | |
| 20260508124538 | 5 | 0.0 | 0.0 | 0.00 | 0.00 | 0.00 | 79 | 1011.1 | |
| 20260508123038 | 4 | 0.0 | 0.0 | 0.00 | 0.00 | 0.00 | 79 | 1011.1 | |
| 20260508121537 | 4 | 0.0 | 0.0 | 0.00 | 0.00 | 0.00 | 80 | 1011.2 | |
| 20260508120036 | 4 | 0.0 | 0.0 | 0.00 | 0.00 | 0.00 | 81 | 1011.2 | |
| 20260508114535 | 3 | 0.0 | 0.0 | 0.00 | 0.00 | 0.00 | 83 | 1011.3 | |
| 20260508113033 | 3 | 0.0 | 0.0 | 0.00 | 0.00 | 0.00 | 83 | 1011.1 | |
| 20260508111531 | -17 | 0.0 | 0.0 | 0.00 | 0.00 | 0.00 | 1011.2 | ||
| 20260508110027 | -17 | 0.0 | 0.0 | 0.00 | 0.00 | 0.00 | 1011.0 | ||
| 20260508104523 | -17 | 0.0 | 0.0 | 0.00 | 0.00 | 0.00 | 1011.1 | ||
| 20260508103021 | -17 | 0.0 | 0.0 | 0.00 | 0.00 | 0.00 | 1011.0 | ||
| 20260508101514 | -17 | 0.0 | 0.0 | 0.00 | 0.00 | 0.00 | 1011.0 | ||
| 20260508100017 | -17 | 0.0 | 0.0 | 0.00 | 0.00 | 0.00 | 1011.1 | ||
| 20260508094505 | -17 | 0.0 | 0.0 | 0.00 | 0.00 | 0.00 | 1011.1 | ||
| 20260508093100 | -17 | 0.0 | 0.0 | 0.00 | 0.00 | 0.00 | 88 | 1011.0 | |
| 20260508091609 | 2 | 0.0 | 0.0 | 0.00 | 0.00 | 0.00 | 88 | 1010.9 | |
| 20260508090059 | 2 | 0.0 | 0.0 | 0.00 | 0.00 | 0.00 | 88 | 1010.9 | |
| 20260508084612 | 2 | 0.0 | 0.0 | 0.00 | 0.00 | 0.00 | 88 | 1010.7 | |
| 20260508083106 | 2 | 0.0 | 0.0 | 0.00 | 0.00 | 0.00 | 88 | 1010.7 | |
| 20260508081554 | 3 | 0.0 | 0.0 | 0.00 | 0.00 | 0.00 | 88 | 1010.6 | |
| 20260508080106 | 3 | 0.0 | 0.0 | 0.00 | 0.00 | 0.00 | 88 | 1010.4 | |
| 20260508074549 | 3 | 0.0 | 0.0 | 0.00 | 0.00 | 0.00 | 88 | 1010.4 | |
| 20260508073056 | 3 | 0.0 | 0.0 | 0.00 | 0.00 | 0.00 | 89 | 1010.5 | |
| 20260508071548 | 3 | 0.0 | 0.0 | 0.00 | 0.00 | 0.00 | 89 | 1010.6 | |
| 20260508070051 | 3 | 0.0 | 0.0 | 0.00 | 0.00 | 0.00 | 90 | 1010.6 | |
| 20260508064553 | 3 | 0.0 | 0.0 | 0.00 | 0.00 | 0.00 | 90 | 1010.5 | |
| 20260508063045 | 3 | 0.0 | 0.0 | 0.00 | 0.00 | 0.00 | 88 | 1010.4 | |
| 20260508061545 | 3 | 0.0 | 0.0 | 0.00 | 0.00 | 0.00 | 88 | 1010.2 | |
| 20260508060043 | 3 | 0.0 | 0.0 | 0.00 | 0.00 | 0.00 | 87 | 1010.2 | |
| 20260508054546 | 3 | 0.0 | 0.0 | 0.00 | 0.00 | 0.00 | 85 | 1010.2 | |
| 20260508053041 | 4 | 0.0 | 0.0 | 0.00 | 0.00 | 0.00 | 84 | 1010.4 | |
| 20260508051538 | 4 | 0.0 | 0.0 | 0.00 | 0.00 | 0.00 | 83 | 1010.6 | |
| 20260508050040 | 5 | 0.0 | 0.0 | 0.00 | 0.00 | 0.00 | 81 | 1010.7 | |
| 20260508044529 | 5 | 0.0 | 0.0 | 0.00 | 0.00 | 0.00 | 79 | 1010.6 | |
| 20260508043025 | 5 | 0.0 | 0.0 | 0.00 | 0.00 | 0.00 | 77 | 1010.9 | |
| 20260508041524 | 5 | 0.0 | 0.0 | 0.00 | 0.00 | 0.00 | 76 | 1010.9 | |
| 20260508040037 | 6 | 0.0 | 0.0 | 0.00 | 0.00 | 0.00 | 76 | 1010.9 | |
| 20260508034524 | 6 | 0.0 | 0.0 | 0.00 | 0.00 | 0.00 | 73 | 1010.5 | |
| 20260508033019 | 6 | 0.0 | 0.0 | 0.00 | 0.00 | 0.00 | 68 | 1010.4 | |
| 20260508031521 | 6 | 0.0 | 0.0 | 0.00 | 0.00 | 0.00 | 67 | 1010.3 | |
| 20260508030021 | 6 | 0.0 | 0.0 | 0.00 | 0.00 | 0.00 | 64 | 1009.9 | |
| 20260508024523 | 6 | 0.0 | 0.0 | 0.00 | 0.00 | 0.00 | 64 | 1009.7 | |
| 20260508023017 | 6 | 0.0 | 0.0 | 0.00 | 0.00 | 0.00 | 63 | 1009.8 | |
| 20260508021518 | 6 | 0.0 | 0.0 | 0.00 | 0.00 | 0.00 | 63 | 1009.7 | |
| 20260508020016 | 7 | 0.0 | 0.0 | 0.00 | 0.00 | 0.00 | 62 | 1009.7 | |
| 20260508014515 | 7 | 0.0 | 0.0 | 0.00 | 0.00 | 0.00 | 63 | 1009.4 | |
| 20260508013014 | 7 | 0.0 | 0.0 | 0.00 | 0.00 | 0.00 | 62 | 1009.3 | |
| 20260508011516 | 7 | 0.0 | 0.0 | 0.00 | 0.00 | 0.00 | 62 | 1009.3 | |
| 20260508010015 | 7 | 0.0 | 0.0 | 0.00 | 0.00 | 0.00 | 63 | 1009.2 | |
| 20260508004513 | 7 | 0.0 | 0.0 | 0.00 | 0.00 | 0.00 | 65 | 1009.2 | |
| 20260508003012 | 7 | 0.0 | 0.0 | 0.00 | 0.00 | 0.00 | 62 | 1009.1 |